sat.trackr.live / text

‹ back to catalog

STARLINK-34249

NORAD 65376 · 2025-190AB

PAYLOAD ACTIVE UNKNOWN

§ Identity

Operator
Country
US
Launch date
2025-08-28
Launch site
AFETR
Launch vehicle
Mass (kg)
RCS (m²)

Purposes: comms

External: N2YO · Heavens-Above · Gunter

§ Orbital elements

Epoch: 2026-05-25T01:34:24.682080Z

Period
93.85 min
Inclination
53.1589°
Eccentricity
0.0001142
Mean motion
15.34406860 rev/d
Perigee alt
461.9 km
Apogee alt
463.5 km
Semi-major
6,840.8 km
B*
4.1542e-4
RAAN
173.0591°
Arg perigee
85.9960°
Mean anomaly
274.1174°
Rev number
4,187

§ Raw data

STARLINK-342491 65376U 25190AB  26145.06556345  .00013688  00000+0  41542-3 0  99902 65376  53.1589 173.0591 0001142  85.9960 274.1174 15.34406860 41874

JSON: /api/v1/satellites/65376 · /tle

For live sub-satellite position, see the globe view (requires WebGL).

§ Visibility from observer

Set your observer location to see the next 7 days of passes ≥ 10°. The values pass through the URL so the page stays shareable.

No JS? Fill the form by hand. The geolocation button needs JavaScript.